Time,TemperatureF,DewpointF,PressureIn,WindDirection,WindDirectionDegrees,WindSpeedMPH,WindSpeedGustMPH,Humidity,HourlyPrecipIn,Conditions,Clouds,dailyrainin,SoftwareType,DateUTC
2013-02-18 00:13:00,14.4,-4.0,29.67,NNE,27,10.0,-999.0,43,-99.99,,,0.00,weatherlink.com 1.10,2013-02-18 05:13:00,
2013-02-18 00:28:00,14.3,-5.0,29.67,NNW,340,5.0,-999.0,43,-99.99,,,0.00,weatherlink.com 1.10,2013-02-18 05:28:00,
2013-02-18 00:43:00,14.3,-5.0,29.67,WNW,301,2.0,-999.0,43,-99.99,,,0.00,weatherlink.com 1.10,2013-02-18 05:43:00,
2013-02-18 00:58:00,14.1,-5.0,29.68,NNE,13,1.0,-999.0,43,-99.99,,,0.00,weatherlink.com 1.10,2013-02-18 05:58:00,
2013-02-18 01:14:00,14.1,-5.0,29.68,West,277,3.0,-999.0,42,-99.99,,,0.00,weatherlink.com 1.10,2013-02-18 06:14:00,
2013-02-18 01:28:00,14.1,-5.0,29.69,East,86,6.0,-999.0,43,-99.99,,,0.00,weatherlink.com 1.10,2013-02-18 06:28:00,
2013-02-18 01:43:00,14.1,-5.0,29.69,NNE,32,5.0,-999.0,43,-99.99,,,0.00,weatherlink.com 1.10,2013-02-18 06:43:00,
2013-02-18 01:58:00,14.0,-5.0,29.70,WSW,258,1.0,-999.0,43,-99.99,,,0.00,weatherlink.com 1.10,2013-02-18 06:58:00,
2013-02-18 02:13:00,14.0,-5.0,29.71,NNE,14,6.0,-999.0,43,-99.99,,,0.00,weatherlink.com 1.10,2013-02-18 07:13:00,
2013-02-18 02:28:00,13.8,-5.0,29.71,NNE,18,1.0,-999.0,44,-99.99,,,0.00,weatherlink.com 1.10,2013-02-18 07:28:00,
2013-02-18 02:43:00,13.8,-5.0,29.72,ESE,104,2.0,-999.0,44,-99.99,,,0.00,weatherlink.com 1.10,2013-02-18 07:43:00,
2013-02-18 02:59:00,13.6,-5.0,29.73,NNW,330,2.0,-999.0,44,-99.99,,,0.00,weatherlink.com 1.10,2013-02-18 07:59:00,
2013-02-18 03:13:00,13.6,-5.0,29.74,NNE,23,5.0,-999.0,44,-99.99,,,0.00,weatherlink.com 1.10,2013-02-18 08:13:00,
2013-02-18 03:28:00,13.6,-5.0,29.75,ESE,113,2.0,-999.0,44,-99.99,,,0.00,weatherlink.com 1.10,2013-02-18 08:28:00,
2013-02-18 03:43:00,13.5,-5.0,29.75,NW,326,2.0,-999.0,44,-99.99,,,0.00,weatherlink.com 1.10,2013-02-18 08:43:00,
2013-02-18 03:59:00,13.3,-5.0,29.75,NW,311,2.0,-999.0,44,-99.99,,,0.00,weatherlink.com 1.10,2013-02-18 08:59:00,
2013-02-18 04:13:00,13.3,-5.0,29.76,WNW,294,6.0,-999.0,44,-99.99,,,0.00,weatherlink.com 1.10,2013-02-18 09:13:00,
2013-02-18 04:28:00,13.5,-5.0,29.77,WNW,295,4.0,-999.0,44,-99.99,,,0.00,weatherlink.com 1.10,2013-02-18 09:28:00,
2013-02-18 04:43:00,13.6,-5.0,29.78,West,275,4.0,-999.0,44,-99.99,,,0.00,weatherlink.com 1.10,2013-02-18 09:43:00,
2013-02-18 04:58:00,13.6,-5.0,29.80,North,350,3.0,-999.0,44,-99.99,,,0.00,weatherlink.com 1.10,2013-02-18 09:58:00,
2013-02-18 05:13:00,13.6,-5.0,29.80,SE,124,2.0,-999.0,44,-99.99,,,0.00,weatherlink.com 1.10,2013-02-18 10:13:00,
2013-02-18 05:28:00,13.1,-5.0,29.81,WSW,247,3.0,-999.0,44,-99.99,,,0.00,weatherlink.com 1.10,2013-02-18 10:28:00,
2013-02-18 05:43:00,12.8,-5.0,29.82,SSW,195,2.0,-999.0,45,-99.99,,,0.00,weatherlink.com 1.10,2013-02-18 10:43:00,
2013-02-18 05:59:00,12.6,-5.0,29.83,NW,313,3.0,-999.0,45,-99.99,,,0.00,weatherlink.com 1.10,2013-02-18 10:59:00,
2013-02-18 06:13:00,12.4,-5.0,29.84,WNW,298,2.0,-999.0,45,-99.99,,,0.00,weatherlink.com 1.10,2013-02-18 11:13:00,
2013-02-18 06:29:00,12.4,-5.0,29.85,NNW,332,3.0,-999.0,45,-99.99,,,0.00,weatherlink.com 1.10,2013-02-18 11:29:00,
2013-02-18 06:43:00,12.4,-6.0,29.86,NW,320,2.0,-999.0,44,-99.99,,,0.00,weatherlink.com 1.10,2013-02-18 11:43:00,
2013-02-18 06:58:00,12.6,-6.0,29.87,NNE,17,2.0,-999.0,44,-99.99,,,0.00,weatherlink.com 1.10,2013-02-18 11:58:00,
2013-02-18 07:13:00,12.9,-6.0,29.88,NW,313,0.0,-999.0,43,-99.99,,,0.00,weatherlink.com 1.10,2013-02-18 12:13:00,
2013-02-18 07:29:00,13.6,-6.0,29.89,NE,41,5.0,-999.0,42,-99.99,,,0.00,weatherlink.com 1.10,2013-02-18 12:29:00,
2013-02-18 07:43:00,14.1,-6.0,29.89,SW,226,6.0,-999.0,41,-99.99,,,0.00,weatherlink.com 1.10,2013-02-18 12:43:00,
2013-02-18 07:59:00,14.8,-6.0,29.90,NW,306,4.0,-999.0,39,-99.99,,,0.00,weatherlink.com 1.10,2013-02-18 12:59:00,
2013-02-18 08:13:00,15.6,-5.0,29.91,NE,52,2.0,-999.0,39,-99.99,,,0.00,weatherlink.com 1.10,2013-02-18 13:13:00,
2013-02-18 08:29:00,16.4,-6.0,29.91,East,86,5.0,-999.0,37,-99.99,,,0.00,weatherlink.com 1.10,2013-02-18 13:29:00,
2013-02-18 08:44:00,17.2,-6.0,29.92,NNE,31,10.0,-999.0,36,-99.99,,,0.00,weatherlink.com 1.10,2013-02-18 13:44:00,
2013-02-18 08:58:00,17.7,-5.0,29.94,NE,38,10.0,-999.0,36,-99.99,,,0.00,weatherlink.com 1.10,2013-02-18 13:58:00,
2013-02-18 09:14:00,18.1,-5.0,29.93,WNW,291,5.0,-999.0,35,-99.99,,,0.00,weatherlink.com 1.10,2013-02-18 14:14:00,
2013-02-18 09:28:00,18.8,-5.0,29.94,West,270,7.0,-999.0,34,-99.99,,,0.00,weatherlink.com 1.10,2013-02-18 14:28:00,
2013-02-18 09:43:00,19.9,-6.0,29.94,NNE,13,5.0,-999.0,32,-99.99,,,0.00,weatherlink.com 1.10,2013-02-18 14:43:00,
2013-02-18 09:58:00,20.8,-7.0,29.95,NNE,31,11.0,-999.0,29,-99.99,,,0.00,weatherlink.com 1.10,2013-02-18 14:58:00,
2013-02-18 10:13:00,22.4,-9.0,29.95,NNW,340,2.0,-999.0,25,-99.99,,,0.00,weatherlink.com 1.10,2013-02-18 15:13:00,
2013-02-18 10:28:00,22.7,-10.0,29.95,NE,52,8.0,-999.0,23,-99.99,,,0.00,weatherlink.com 1.10,2013-02-18 15:28:00,
2013-02-18 10:44:00,23.8,-11.0,29.95,WNW,302,6.0,-999.0,21,-99.99,,,0.00,weatherlink.com 1.10,2013-02-18 15:44:00,
2013-02-18 10:58:00,24.7,-10.0,29.95,NNE,23,2.0,-999.0,21,-99.99,,,0.00,weatherlink.com 1.10,2013-02-18 15:58:00,
2013-02-18 11:13:00,24.8,-11.0,29.95,NNW,344,3.0,-999.0,20,-99.99,,,0.00,weatherlink.com 1.10,2013-02-18 16:13:00,
2013-02-18 11:29:00,25.8,-11.0,29.96,ESE,102,18.0,-999.0,19,-99.99,,,0.00,weatherlink.com 1.10,2013-02-18 16:29:00,
2013-02-18 11:43:00,25.8,-10.0,29.96,NNE,28,12.0,-999.0,20,-99.99,,,0.00,weatherlink.com 1.10,2013-02-18 16:43:00,
2013-02-18 11:58:00,26.6,-9.0,29.96,NE,49,2.0,-999.0,21,-99.99,,,0.00,weatherlink.com 1.10,2013-02-18 16:58:00,
2013-02-18 12:13:00,26.7,-11.0,29.96,WNW,282,3.0,-999.0,19,-99.99,,,0.00,weatherlink.com 1.10,2013-02-18 17:13:00,
2013-02-18 12:28:00,27.0,-8.0,29.96,WNW,292,5.0,-999.0,21,-99.99,,,0.00,weatherlink.com 1.10,2013-02-18 17:28:00,
2013-02-18 12:44:00,27.0,-10.0,29.97,NW,320,5.0,-999.0,19,-99.99,,,0.00,weatherlink.com 1.10,2013-02-18 17:44:00,
2013-02-18 12:58:00,27.3,-8.0,29.96,SW,233,2.0,-999.0,21,-99.99,,,0.00,weatherlink.com 1.10,2013-02-18 17:58:00,
2013-02-18 13:13:00,27.5,-10.0,29.96,NNE,24,17.0,-999.0,19,-99.99,,,0.00,weatherlink.com 1.10,2013-02-18 18:13:00,
2013-02-18 13:29:00,28.4,-8.0,29.96,NE,54,6.0,-999.0,20,-99.99,,,0.00,weatherlink.com 1.10,2013-02-18 18:29:00,
2013-02-18 13:43:00,27.9,-8.0,29.96,North,353,8.0,-999.0,20,-99.99,,,0.00,weatherlink.com 1.10,2013-02-18 18:43:00,
2013-02-18 13:59:00,28.4,-9.0,29.97,NNE,30,5.0,-999.0,19,-99.99,,,0.00,weatherlink.com 1.10,2013-02-18 18:59:00,
2013-02-18 14:13:00,28.4,-9.0,29.98,SW,234,10.0,-999.0,19,-99.99,,,0.00,weatherlink.com 1.10,2013-02-18 19:13:00,
2013-02-18 14:28:00,28.4,-11.0,29.98,NE,52,3.0,-999.0,17,-99.99,,,0.00,weatherlink.com 1.10,2013-02-18 19:28:00,
2013-02-18 14:43:00,28.7,-10.0,29.98,North,354,3.0,-999.0,18,-99.99,,,0.00,weatherlink.com 1.10,2013-02-18 19:43:00,
2013-02-18 14:58:00,28.5,-11.0,29.99,NE,51,10.0,-999.0,17,-99.99,,,0.00,weatherlink.com 1.10,2013-02-18 19:58:00,
2013-02-18 15:13:00,28.8,-10.0,29.99,NE,42,10.0,-999.0,18,-99.99,,,0.00,weatherlink.com 1.10,2013-02-18 20:13:00,
2013-02-18 15:29:00,29.1,-9.0,30.00,NNE,30,3.0,-999.0,19,-99.99,,,0.00,weatherlink.com 1.10,2013-02-18 20:29:00,
2013-02-18 15:43:00,29.1,-13.0,30.00,WNW,282,2.0,-999.0,15,-99.99,,,0.00,weatherlink.com 1.10,2013-02-18 20:43:00,
2013-02-18 15:59:00,29.4,-12.0,30.00,NE,42,6.0,-999.0,16,-99.99,,,0.00,weatherlink.com 1.10,2013-02-18 20:59:00,
2013-02-18 16:13:00,29.5,-13.0,30.01,NNE,13,6.0,-999.0,15,-99.99,,,0.00,weatherlink.com 1.10,2013-02-18 21:13:00,
2013-02-18 16:28:00,29.4,-11.0,30.01,North,8,3.0,-999.0,17,-99.99,,,0.00,weatherlink.com 1.10,2013-02-18 21:28:00,
2013-02-18 16:43:00,29.1,-12.0,30.02,WNW,299,2.0,-999.0,16,-99.99,,,0.00,weatherlink.com 1.10,2013-02-18 21:43:00,
2013-02-18 16:58:00,28.5,-9.0,30.02,NW,318,1.0,-999.0,19,-99.99,,,0.00,weatherlink.com 1.10,2013-02-18 21:58:00,
2013-02-18 17:14:00,28.2,-10.0,30.02,West,263,3.0,-999.0,18,-99.99,,,0.00,weatherlink.com 1.10,2013-02-18 22:14:00,
2013-02-18 17:28:00,28.1,-12.0,30.03,NNW,333,3.0,-999.0,17,-99.99,,,0.00,weatherlink.com 1.10,2013-02-18 22:28:00,
2013-02-18 17:43:00,27.6,-10.0,30.03,WNW,282,2.0,-999.0,19,-99.99,,,0.00,weatherlink.com 1.10,2013-02-18 22:43:00,
2013-02-18 17:58:00,27.2,-10.0,30.03,NNW,347,1.0,-999.0,19,-99.99,,,0.00,weatherlink.com 1.10,2013-02-18 22:58:00,
2013-02-18 18:28:00,26.9,-12.0,30.05,WSW,248,0.0,-999.0,18,-99.99,,,0.00,weatherlink.com 1.10,2013-02-18 23:28:00,
2013-02-18 18:43:00,26.7,-11.0,30.05,WSW,246,0.0,-999.0,19,-99.99,,,0.00,weatherlink.com 1.10,2013-02-18 23:43:00,
2013-02-18 18:59:00,26.0,-10.0,30.06,WSW,246,2.0,-999.0,20,-99.99,,,0.00,weatherlink.com 1.10,2013-02-18 23:59:00,
2013-02-18 19:14:00,25.4,-10.0,30.06,SW,234,0.0,-999.0,21,-99.99,,,0.00,weatherlink.com 1.10,2013-02-19 00:14:00,
2013-02-18 19:29:00,25.0,-8.0,30.07,SW,227,0.0,-999.0,23,-99.99,,,0.00,weatherlink.com 1.10,2013-02-19 00:29:00,
2013-02-18 19:43:00,24.2,-7.0,30.07,SW,227,0.0,-999.0,25,-99.99,,,0.00,weatherlink.com 1.10,2013-02-19 00:43:00,
2013-02-18 19:59:00,24.1,-10.0,30.08,SW,227,1.0,-999.0,22,-99.99,,,0.00,weatherlink.com 1.10,2013-02-19 00:59:00,
2013-02-18 20:13:00,23.0,-5.0,30.08,SW,227,0.0,-999.0,29,-99.99,,,0.00,weatherlink.com 1.10,2013-02-19 01:13:00,
2013-02-18 20:28:00,21.6,-2.0,30.08,SW,227,0.0,-999.0,36,-99.99,,,0.00,weatherlink.com 1.10,2013-02-19 01:28:00,
2013-02-18 20:43:00,21.1,-2.0,30.08,SW,227,0.0,-999.0,36,-99.99,,,0.00,weatherlink.com 1.10,2013-02-19 01:43:00,
2013-02-18 20:58:00,20.6,-4.0,30.09,SW,227,0.0,-999.0,33,-99.99,,,0.00,weatherlink.com 1.10,2013-02-19 01:58:00,
2013-02-18 21:13:00,20.0,-3.0,30.09,SW,227,0.0,-999.0,37,-99.99,,,0.00,weatherlink.com 1.10,2013-02-19 02:13:00,
2013-02-18 21:29:00,21.1,-7.0,30.09,SW,229,2.0,-999.0,29,-99.99,,,0.00,weatherlink.com 1.10,2013-02-19 02:29:00,
2013-02-18 21:44:00,22.5,-5.0,30.09,WSW,247,2.0,-999.0,29,-99.99,,,0.00,weatherlink.com 1.10,2013-02-19 02:44:00,
2013-02-18 21:58:00,22.5,-5.0,30.09,WSW,247,1.0,-999.0,30,-99.99,,,0.00,weatherlink.com 1.10,2013-02-19 02:58:00,
2013-02-18 22:13:00,20.0,0.0,30.09,WSW,247,1.0,-999.0,41,-99.99,,,0.00,weatherlink.com 1.10,2013-02-19 03:13:00,
2013-02-18 22:43:00,19.9,-3.0,30.11,WSW,247,0.0,-999.0,37,-99.99,,,0.00,weatherlink.com 1.10,2013-02-19 03:43:00,
2013-02-18 22:58:00,19.7,-3.0,30.11,WSW,247,1.0,-999.0,37,-99.99,,,0.00,weatherlink.com 1.10,2013-02-19 03:58:00,
2013-02-18 23:13:00,19.2,-1.0,30.11,WSW,247,0.0,-999.0,42,-99.99,,,0.00,weatherlink.com 1.10,2013-02-19 04:13:00,
2013-02-18 23:29:00,17.7,1.0,30.11,WSW,247,1.0,-999.0,47,-99.99,,,0.00,weatherlink.com 1.10,2013-02-19 04:29:00,
2013-02-18 23:44:00,19.4,-3.0,30.12,WSW,247,0.0,-999.0,38,-99.99,,,0.00,weatherlink.com 1.10,2013-02-19 04:44:00,
2013-02-18 23:58:00,18.1,0.0,30.11,WSW,247,0.0,-999.0,46,-99.99,,,0.00,weatherlink.com 1.10,2013-02-19 04:58:00,